Retour au catalogue

STARLINK-35296

ActifCommunicationsSSO
NORAD 65801·PAYLOAD·🇺🇸 United States

Lancé Sep 26, 2025 depuis Vandenberg Space Force Base

Loading…

Prochains Passages (prochaines 24 heures)

TLE

FraisSource: CelesTrak SupGP

Époque: Sep 15, 2026, 04:10 UTC

1 65801C 25218L   26258.17409722 -.00032684  00000+0 -10144-2 0  2587
2 65801  97.2839 115.5540 0001578  90.7183 226.8139 15.33461311    10

Suivez STARLINK-35296 en temps réel avec AllMySat

Download on the App Store